Change the Weather History Date:

Friday, January 11, 2013

  Actual Average Record
Temperature  
Mean Temperature 10 °F -  
Max Temperature 19 °F 21 °F 46 °F (2006)
Min Temperature 1 °F 4 °F -25 °F (1997)
Degree Days  
Heating Degree Days 55    
Moisture  
Dew Point 5 °F    
Average Humidity 81    
Maximum Humidity 93    
Minimum Humidity 72    
Precipitation  
Precipitation 0.00 in - - ()
Sea Level Pressure  
Sea Level Pressure 29.76 in    
Wind  
Wind Speed 17 mph (NNW)    
Max Wind Speed 30 mph    
Max Gust Speed 34 mph    
Visibility 3 miles    
Events      
Averages and records for this station are not official NWS values.
T = Trace of Precipitation, MM = Missing Value Source: NWS Daily Summary

Daily Weather History Graph

Daily Weather History Graph

Search for Another Location

Airport or City:

Trip Planner

Search our weather history database for the weather conditions in past years. The results will help you decide how hot, cold, wet, or windy it might be!

Date:

Astronomy

Jan. 11, 2013 Rise Set
Actual Time 7:43 AM MST 4:31 PM MST
Civil Twilight 7:08 AM MST 5:06 PM MST
Nautical Twilight 6:30 AM MST 5:44 PM MST
Astronomical Twilight 5:53 AM MST 6:21 PM MST
Moon 7:15 AM MST (1/11) 4:57 PM MST (1/11)
Length of Visible Light 9h 58m
Length of Day
8h 48m
Waning Crescent, 0% of the Moon is Illuminated
Jan 11
Waning Crescent
Jan 11
New
Jan 18
First Quarter
Jan 26
Full
Feb 3
Last Quarter

Hourly Weather History & Observations

Time (MST) Temp. Windchill Dew Point Humidity Pressure Visibility Wind Dir Wind Speed Gust Speed Precip Events Conditions
12:15 AM 19.4 °F 5.5 °F 15.8 °F 86% 29.62 in 6.0 mi NW 15.0 mph - N/A   Overcast
12:35 AM 17.6 °F 1.7 °F 15.8 °F 93% 29.62 in 4.0 mi NNW 18.4 mph - N/A   Overcast
1:15 AM 17.6 °F 2.2 °F 15.8 °F 93% 29.62 in 5.0 mi NNW 17.3 mph - N/A   Overcast
1:35 AM 17.6 °F 2.7 °F 14.0 °F 86% 29.63 in 4.0 mi NNW 16.1 mph - N/A   Overcast
1:55 AM 17.6 °F 3.2 °F 14.0 °F 86% 29.63 in 4.0 mi North 15.0 mph - N/A   Overcast
2:15 AM 17.6 °F 3.2 °F 14.0 °F 86% 29.64 in 5.0 mi North 15.0 mph - N/A   Overcast
2:35 AM 17.6 °F 4.3 °F 12.2 °F 79% 29.64 in 6.0 mi North 12.7 mph - N/A   Overcast
2:55 AM 15.8 °F 0.9 °F 12.2 °F 86% 29.64 in 9.0 mi North 15.0 mph - N/A   Overcast
3:15 AM 15.8 °F 0.3 °F 12.2 °F 86% 29.64 in 4.0 mi North 16.1 mph - N/A   Overcast
3:35 AM 15.8 °F 0.3 °F 12.2 °F 86% 29.63 in 6.0 mi North 16.1 mph - N/A   Overcast
4:15 AM 15.8 °F 1.4 °F 12.2 °F 86% 29.64 in 6.0 mi North 13.8 mph - N/A   Overcast
4:35 AM 15.8 °F 0.3 °F 12.2 °F 86% 29.63 in 5.0 mi NNW 16.1 mph - N/A   Overcast
4:55 AM 15.8 °F 2.7 °F 12.2 °F 86% 29.64 in 6.0 mi North 11.5 mph - N/A   Overcast
5:15 AM 15.8 °F 2.7 °F 10.4 °F 79% 29.64 in 2.5 mi North 11.5 mph - N/A   Overcast
5:35 AM 15.8 °F 4.2 °F 10.4 °F 79% 29.64 in 2.0 mi North 9.2 mph - N/A   Overcast
5:55 AM 14.0 °F 0.5 °F 10.4 °F 86% 29.65 in 1.8 mi NNW 11.5 mph - N/A   Overcast
6:15 AM 14.0 °F 1.2 °F 10.4 °F 86% 29.67 in 2.5 mi NNW 10.4 mph - N/A   Overcast
6:35 AM 14.0 °F -1.4 °F 8.6 °F 79% 29.67 in 3.0 mi NNW 15.0 mph - N/A   Overcast
6:55 AM 12.2 °F -1.0 °F 10.4 °F 92% 29.68 in 3.0 mi NNW 10.4 mph - N/A   Overcast
7:15 AM 12.2 °F -3.1 °F 8.6 °F 85% 29.68 in 2.5 mi NNW 13.8 mph - N/A   Overcast
7:55 AM 12.2 °F -3.7 °F 8.6 °F 85% 29.67 in 1.0 mi NNW 15.0 mph - N/A   Overcast
8:15 AM 12.2 °F -3.7 °F 6.8 °F 79% 29.66 in 4.0 mi NNW 15.0 mph - N/A   Scattered Clouds
8:35 AM 12.2 °F -1.8 °F 6.8 °F 79% 29.69 in 7.0 mi NNW 11.5 mph - N/A   Clear
8:55 AM 12.2 °F -1.0 °F 6.8 °F 79% 29.70 in 10.0 mi NNW 10.4 mph - N/A   Mostly Cloudy
9:15 AM 10.4 °F -6.6 °F 6.8 °F 85% 29.70 in 10.0 mi NNW 16.1 mph - N/A   Scattered Clouds
9:35 AM 10.4 °F -8.2 °F 5.0 °F 79% 29.69 in 4.0 mi NNW 19.6 mph - N/A   Partly Cloudy
9:55 AM 10.4 °F -7.2 °F 6.8 °F 85% 29.71 in 7.0 mi North 17.3 mph - N/A   Mostly Cloudy
10:15 AM 10.4 °F -7.7 °F 5.0 °F 79% 29.72 in 7.0 mi North 18.4 mph 24.2 mph N/A   Mostly Cloudy
10:35 AM 10.4 °F -7.2 °F 3.2 °F 73% 29.73 in 5.0 mi North 17.3 mph 23.0 mph N/A   Partly Cloudy
10:55 AM 10.4 °F -6.6 °F 3.2 °F 73% 29.73 in 5.0 mi North 16.1 mph - N/A   Mostly Cloudy
11:15 AM 10.4 °F -8.2 °F 5.0 °F 79% 29.72 in 2.0 mi North 19.6 mph - N/A   Overcast
11:35 AM 10.4 °F -7.7 °F 3.2 °F 73% 29.73 in 1.5 mi North 18.4 mph 23.0 mph N/A   Overcast
11:55 AM 10.4 °F -6.0 °F 5.0 °F 79% 29.74 in 1.5 mi North 15.0 mph 23.0 mph N/A   Overcast
12:35 PM 10.4 °F -4.8 °F 5.0 °F 79% 29.74 in 2.0 mi North 12.7 mph 19.6 mph N/A   Overcast
12:55 PM 10.4 °F -6.6 °F 3.2 °F 73% 29.73 in 2.0 mi North 16.1 mph - N/A   Overcast
1:15 PM 10.4 °F -8.6 °F 3.2 °F 73% 29.73 in 2.5 mi North 20.7 mph - N/A   Overcast
1:55 PM 8.6 °F -10.5 °F 3.2 °F 79% 29.74 in 1.8 mi North 19.6 mph 24.2 mph N/A   Scattered Clouds
2:15 PM 8.6 °F -11.9 °F 1.4 °F 73% 29.75 in 1.5 mi North 23.0 mph 28.8 mph N/A   Clear
2:35 PM 8.6 °F -10.5 °F 1.4 °F 73% 29.77 in 5.0 mi NNW 19.6 mph - N/A   Clear
3:15 PM 6.8 °F -13.4 °F 1.4 °F 79% 29.79 in 2.0 mi North 20.7 mph 26.5 mph N/A   Overcast
3:35 PM 6.8 °F -12.9 °F 1.4 °F 79% 29.80 in 2.0 mi North 19.6 mph 24.2 mph N/A   Mostly Cloudy
3:55 PM 6.8 °F -13.8 °F 1.4 °F 79% 29.80 in 1.5 mi NNW 21.9 mph 31.1 mph N/A   Clear
4:15 PM 6.8 °F -15.1 °F 1.4 °F 79% 29.80 in 2.0 mi North 25.3 mph 28.8 mph N/A   Clear
4:35 PM 6.8 °F -14.7 °F -0.4 °F 72% 29.81 in 1.2 mi North 24.2 mph 28.8 mph N/A   Clear
4:55 PM 5.0 °F -17.5 °F -0.4 °F 78% 29.82 in 1.5 mi NNW 25.3 mph 28.8 mph N/A   Clear
5:15 PM 5.0 °F -17.9 °F -0.4 °F 78% 29.83 in 2.0 mi North 26.5 mph 31.1 mph N/A   Clear
5:55 PM 5.0 °F -16.2 °F -0.4 °F 78% 29.85 in 5.0 mi North 21.9 mph 29.9 mph N/A   Scattered Clouds
6:15 PM 5.0 °F -17.1 °F -0.4 °F 78% 29.86 in 3.0 mi North 24.2 mph 32.2 mph N/A   Scattered Clouds
6:55 PM 5.0 °F -16.2 °F -2.2 °F 72% 29.88 in 1.8 mi North 21.9 mph 31.1 mph N/A   Overcast
7:15 PM 5.0 °F -16.2 °F -0.4 °F 78% 29.88 in 1.8 mi North 21.9 mph 29.9 mph N/A   Overcast
7:35 PM 3.2 °F -19.0 °F -2.2 °F 78% 29.89 in 1.2 mi North 23.0 mph 32.2 mph N/A   Overcast
7:55 PM 3.2 °F -18.6 °F -0.4 °F 85% 29.89 in 1.0 mi North 21.9 mph 33.4 mph N/A   Overcast
8:15 PM 3.2 °F -21.5 °F -0.4 °F 85% 29.90 in 1.2 mi North 29.9 mph 33.4 mph N/A   Overcast
8:35 PM 3.2 °F -19.9 °F -2.2 °F 78% 29.91 in 1.2 mi North 25.3 mph 32.2 mph N/A   Overcast
8:55 PM 3.2 °F -18.1 °F -0.4 °F 85% 29.91 in 1.5 mi NNW 20.7 mph 28.8 mph N/A   Overcast
9:15 PM 3.2 °F -17.1 °F -2.2 °F 78% 29.93 in 1.8 mi NNW 18.4 mph 25.3 mph N/A   Overcast
9:35 PM 3.2 °F -18.6 °F -2.2 °F 78% 29.93 in 2.0 mi NNW 21.9 mph 31.1 mph N/A   Mostly Cloudy
9:55 PM 3.2 °F -19.5 °F -0.4 °F 85% 29.93 in 2.0 mi NNW 24.2 mph 29.9 mph N/A   Overcast
10:15 PM 3.2 °F -21.1 °F -2.2 °F 78% 29.92 in 2.0 mi NNW 28.8 mph - N/A   Overcast
10:35 PM 3.2 °F -20.3 °F -2.2 °F 78% 29.94 in 1.8 mi NNW 26.5 mph 33.4 mph N/A   Overcast
11:15 PM 3.2 °F -19.5 °F -2.2 °F 78% 29.96 in 1.5 mi NNW 24.2 mph 32.2 mph N/A   Scattered Clouds
11:35 PM 1.4 °F -23.9 °F -2.2 °F 85% 29.96 in 1.2 mi NNW 29.9 mph 34.5 mph N/A   Scattered Clouds
11:55 PM 1.4 °F -23.5 °F -4.0 °F 78% 29.97 in 1.5 mi NNW 28.8 mph 33.4 mph N/A   Mostly Cloudy